User: anonymous   Login
Location: Unspecified
(0.0000°N, 0.0000°E)
Time: 09:23:56
(UTC+00:00)
Language:

Tiros 10 - Orbit

View from above orbital plane
View from above orbital plane
View from above satellite
View from above satellite

Ground track
Ground track

The orbit data is extracted from the following two-line orbital elements,

1 01430U 65051A   15088.13533027  .00000314  00000-0  11053-3 0  9992
2 01430 098.0755 274.8700 0056428 190.5855 169.4151 14.40031724606364
Epoch (UTC): 29 March 2015 03:14:52
Eccentricity: 0.0056428
inclination: 98.0755°
perigee height: 718 km
apogee height: 798 km
right ascension of ascending node: 274.8700°
argument of perigee: 190.5855°
revolutions per day: 14.40031724
mean anomaly at epoch: 169.4151°
orbit number at epoch: 60636

The dashed part of the orbit path shows where the satellite is in the earth's shadow,  

DLR